This is the latest recevied weather packets stored in our database for station/object DG2MCM-11. If no packets are shown the sender has not sent any weather packets the latest 10 day(s).
| Time | Temp. | Humidity | Pressure | Rain* | Wind** | Luminosity | Snow |
|---|---|---|---|---|---|---|---|
| 1777513695 | 4.44° C | 54% | 1025.9 hPa | 0 mm | - | - | - |
| 1777512492 | 4.44° C | 54% | 1025.7 hPa | 0 mm | - | - | - |
| 1777511890 | 4.44° C | 54% | 1025.7 hPa | 0 mm | - | - | - |
| 1777511289 | 5° C | 53% | 1025.6 hPa | 0 mm | - | - | - |
| 1777510687 | 5.56° C | 52% | 1025.4 hPa | 0 mm | - | - | - |
| 1777508883 | 5.56° C | 50% | 1025 hPa | 0 mm | - | - | - |
| 1777507079 | 6.11° C | 49% | 1025 hPa | 0 mm | - | - | - |
| 1777505876 | 6.11° C | 50% | 1024.8 hPa | 0 mm | - | - | - |
| 1777504072 | 6.11° C | 50% | 1024.6 hPa | 0 mm | - | - | - |
| 1777503470 | 6.67° C | 50% | 1024.8 hPa | 0 mm | - | - | - |
| 1777502869 | 6.67° C | 50% | 1024.7 hPa | 0 mm | - | - | - |
| 1777502267 | 6.11° C | 52% | 1024.7 hPa | 0 mm | - | - | - |
| 1777499913 | 7.22° C | 54% | 1024.4 hPa | 0 mm | - | - | - |
| 1777499311 | 7.22° C | 51% | 1024.4 hPa | 0 mm | - | - | - |
| 1777498108 | 7.22° C | 54% | 1024.2 hPa | 0 mm | - | - | - |
| 1777496905 | 7.78° C | 52% | 1023.9 hPa | 0 mm | - | - | - |
| 1777496303 | 8.33° C | 49% | 1023.8 hPa | 0 mm | - | - | - |
| 1777495101 | 8.33° C | 53% | 1023.6 hPa | 0 mm | - | - | - |
| 1777494499 | 8.89° C | 54% | 1023.5 hPa | 0 mm | - | - | - |
| 1777493897 | 8.89° C | 54% | 1023.4 hPa | 0 mm | - | - | - |
| 1777492694 | 9.44° C | 54% | 1023.2 hPa | 0 mm | - | - | - |
| 1777492092 | 9.44° C | 53% | 1023 hPa | 0 mm | - | - | - |
| 1777491490 | 9.44° C | 56% | 1022.7 hPa | 0 mm | - | - | - |
| 1777490888 | 10° C | 55% | 1022.5 hPa | 0 mm | - | - | - |
| 1777490286 | 11.11° C | 51% | 1022.1 hPa | 0 mm | - | - | - |
* Rain latest hour (hover to see other rain measurements)
** Current wind speed in m/s (hover to see current wind gust speed)